Temp
52 45 38 50 52 52 52 50 50 50 52 53 56 58 62 63 61 64 67 69 70 70 73 73 72 73 74 75 75 75 74 75 75 73 71 70 69 72 73 74 74 75 75 75
45 42 49 49 51 51 50 47 47 47 50 51 51 54 61 60 62 65 67 68 70 71 71 71 71 71 72 72 72 72 72 73 73 73 72 73 73 74 74 75 74 75 75 75
44 47 51 49 49 48 48 47 46 46 48 49 48 52 56 59 59 61 63 66 68 68 70 71 68 70 68 68 66 66 67 68 70 71 72 70 70 69 69 70 71 72 73 73
46 50 48 45 45 50 43 51 50 47 46 44 47 45 51 54 55 56 62 64 66 67 65 67 67 68 68 65 62 63 63 64 64 65 67 68 69 68 72 71 73 73 73 73
43 45 44 43 45 51 45 50 48 46 45 44 45 45 54 49 54 58 58 59 61 62 62 63 63 64 62 60 62 62 63 61 61 62 65 67 66 68 69 69 69 70 71 71
46 51 49 48 49 51 51 48 47 45 44 35 43 43 50 52 54 54 54 56 54 55 56 57 57 58 58 58 59 60 61 60 59 61 61 62 63 64 64 65 65 67 68 67
43 44 48 50 45 49 49 44 32 31 32 34 39 38 48 53 56 54 55 56 55 54 54 55 55 57 57 57 58 59 60 58 59 59 59 59 60 61 61 63 64 64 65 64
36 33 44 49 47 44 45 45 34 26 29 34 38 36 47 54 54 53 53 54 54 54 54 55 55 57 57 56 57 58 58 57 57 57 57 58 58 60 60 59 61 63 63 61
34 36 46 47 49 49 42 40 47 33 28 29 39 45 50 55 52 51 50 51 53 55 55 55 55 56 57 57 57 57 57 56 56 56 57 56 57 57 57 57 58 60 59 57
40 33 43 45 49 49 46 48 32 33 25 25 36 37 43 50 51 52 53 51 53 53 53 54 56 55 56 56 55 55 56 56 55 55 55 55 54 55 56 56 55 55 55 55
41 37 37 44 41 41 42 40 41 39 35 30 29 39 52 51 50 50 52 52 53 54 54 55 56 57 56 56 56 56 55 54 54 54 54 54 53 53 53 54 54 53 54 54
37 35 31 37 43 45 46 43 43 34 29 35 32 39 56 52 50 50 52 53 54 54 55 56 56 56 55 56 56 57 56 56 54 54 53 53 52 52 53 52 52 52 52 52
37 32 29 30 36 42 39 42 44 42 38 31 30 39 51 52 52 51 51 53 54 55 55 55 55 55 56 56 56 55 55 55 54 53 53 52 52 52 52 51 51 52 52 51
42 33 30 28 30 34 32 37 40 41 32 35 36 41 49 52 51 55 55 54 54 54 55 56 55 56 56 55 56 56 56 55 53 52 52 52 51 51 51 50 50 50 50 50
41 30 32 36 37 36 36 35 36 34 39 32 41 41 47 51 51 54 57 53 51 52 53 54 55 57 57 56 56 55 56 54 52 51 50 51 50 49 49 48 48 48 48 47
39 29 30 27 35 34 30 37 38 39 40 40 41 40 52 54 55 53 53 51 51 54 55 55 55 55 54 55 56 54 55 53 51 50 50 49 48 47 47 47 46 46 46 46
34 29 26 26 29 29 26 34 38 40 43 43 38 46 52 50 50 51 53 53 52 54 54 53 55 55 54 54 53 53 53 50 49 49 48 47 47 46 45 45 44 44 44 44
32 30 29 25 24 18 36 41 40 38 42 44 44 47 50 50 52 54 55 54 54 54 54 54 56 58 56 54 53 51 49 48 47 47 46 45 45 45 44 43 43 43 43 42
39 35 27 23 22 27 36 41 37 36 40 46 44 48 50 49 48 50 55 56 55 56 58 58 56 57 56 52 51 48 45 45 45 44 44 43 42 41 40 40 41 40 40 39
35 38 30 22 20 18 35 42 43 42 31 47 46 46 46 45 41 50 51 52 52 53 53 52 51 50 50 47 45 45 44 44 44 42 40 39 39 39 40 40 38 37 38 36
24 27 24 25 22 27 40 44 44 28 34 46 46 47 45 43 48 52 52 50 50 48 46 48 47 47 46 43 43 42 43 43 40 38 36 35 36 36 39 38 35 35 35 34
25 22 23 26 22 19 43 38 35 44 46 46 47 48 46 47 46 46 48 47 47 47 45 42 42 40 39 40 41 40 41 37 36 35 34 32 32 33 34 33 32 32 33 32
26 35 30 30 31 43 42 45 47 45 45 46 45 47 46 44 46 47 45 45 44 44 40 39 40 37 37 37 38 37 37 34 32 30 28 29 29 30 31 32 31 32 32 31
31 36 32 31 40 41 42 44 44 46 45 47 46 45 44 43 44 41 40 40 38 39 38 36 36 35 35 34 32 34 33 31 29 29 28 27 28 29 29 31 32 33 32 31
36 35 32 32 39 41 43 43 45 44 44 41 42 41 43 43 40 40 40 39 39 37 35 33 33 32 32 31 30 29 29 28 29 27 26 28 29 29 29 30 31 31 31 32
35 36 34 33 43 43 44 47 45 41 41 43 41 41 41 41 41 41 40 39 38 34 32 32 31 30 32 30 28 26 24 25 27 27 27 29 29 29 30 30 30 31 31 31
MSLP
1017.55 1017.80 1017.63 1016.43 1016.26 1015.64 1014.90 1014.69 1014.74 1015.18 1015.21 1014.84 1014.10 1013.33 1012.88 1013.06 1013.06 1012.70 1012.41 1012.38 1012.52 1012.73 1013.12 1013.70 1014.05 1014.35 1014.56 1014.76 1014.99 1015.33 1015.55 1015.82 1016.22 1016.54 1016.81 1016.98 1016.87 1016.92 1016.91 1016.90 1017.02 1017.17 1017.32 1017.51
1017.44 1016.79 1017.28 1017.61 1017.09 1016.30 1015.88 1015.52 1015.70 1016.10 1015.92 1015.47 1014.80 1013.56 1013.08 1013.20 1012.85 1012.62 1012.45 1012.41 1012.40 1012.68 1013.14 1013.46 1013.92 1014.27 1014.52 1014.65 1014.90 1015.14 1015.43 1015.66 1015.98 1016.15 1016.35 1016.40 1016.31 1016.22 1016.14 1016.22 1016.39 1016.60 1016.74 1016.92
1017.33 1017.54 1017.57 1017.70 1017.44 1016.78 1016.45 1016.27 1016.37 1016.55 1016.46 1016.18 1015.50 1013.93 1013.05 1012.91 1013.01 1012.82 1012.72 1012.59 1012.64 1012.86 1013.07 1013.51 1014.10 1014.36 1014.79 1015.05 1015.36 1015.57 1015.78 1015.85 1015.92 1016.06 1016.21 1016.44 1016.48 1016.38 1016.30 1016.27 1016.27 1016.28 1016.41 1016.57
1017.78 1017.74 1017.59 1017.59 1017.21 1016.89 1016.71 1016.74 1016.75 1016.88 1016.85 1016.30 1016.20 1014.01 1013.01 1013.00 1012.95 1012.83 1012.50 1012.60 1012.73 1013.02 1013.58 1013.85 1014.19 1014.56 1014.90 1015.49 1015.98 1016.06 1016.17 1016.21 1016.28 1016.30 1016.21 1016.12 1016.04 1015.85 1015.67 1015.89 1015.92 1015.88 1015.97 1016.08
1018.27 1018.06 1017.92 1017.55 1017.13 1016.83 1017.44 1017.51 1017.64 1017.56 1017.27 1017.02 1016.59 1015.63 1013.03 1013.43 1013.02 1012.67 1012.82 1013.06 1013.29 1013.53 1013.78 1014.08 1014.54 1014.88 1015.50 1015.94 1016.18 1016.27 1016.27 1016.46 1016.53 1016.44 1016.33 1016.15 1016.13 1015.99 1015.94 1016.05 1016.00 1015.86 1015.83 1015.90
1018.35 1018.21 1017.96 1017.77 1017.52 1017.11 1017.29 1018.17 1018.36 1018.12 1017.80 1017.26 1016.71 1016.16 1013.34 1013.46 1013.35 1013.35 1013.65 1013.89 1014.17 1014.32 1014.40 1014.79 1015.24 1015.60 1015.92 1016.28 1016.40 1016.48 1016.43 1016.61 1016.75 1016.62 1016.60 1016.50 1016.36 1016.25 1016.12 1016.02 1015.97 1015.91 1015.97 1016.12
1018.89 1018.73 1018.53 1018.10 1017.90 1017.74 1017.07 1018.45 1018.90 1018.91 1018.50 1017.51 1017.53 1016.79 1014.41 1013.95 1013.90 1014.22 1014.23 1014.43 1014.74 1015.10 1015.12 1015.30 1015.46 1015.73 1016.11 1016.37 1016.54 1016.63 1016.71 1016.83 1016.90 1016.89 1016.86 1016.85 1016.78 1016.68 1016.45 1016.27 1016.08 1016.00 1015.99 1016.22
1018.96 1018.97 1018.36 1017.97 1017.77 1017.61 1017.89 1018.24 1018.55 1018.70 1018.90 1018.36 1017.96 1016.13 1014.25 1014.27 1014.37 1014.60 1014.86 1014.85 1014.94 1015.23 1015.48 1015.75 1015.84 1015.98 1016.18 1016.52 1016.72 1016.86 1016.96 1017.13 1017.19 1017.17 1017.16 1017.10 1016.93 1016.86 1016.84 1016.70 1016.47 1016.34 1016.36 1016.51
1019.42 1019.06 1018.75 1018.40 1018.08 1018.03 1018.23 1018.17 1018.86 1019.96 1020.66 1019.57 1017.48 1016.06 1015.15 1013.91 1014.36 1014.75 1014.70 1014.92 1015.22 1015.49 1015.76 1015.86 1016.04 1016.26 1016.29 1016.43 1016.74 1016.99 1017.11 1017.30 1017.45 1017.49 1017.45 1017.51 1017.32 1017.12 1017.19 1017.18 1016.94 1016.77 1016.96 1017.14
1020.13 1019.68 1019.28 1018.74 1018.39 1018.28 1017.99 1018.60 1019.86 1020.44 1019.87 1018.92 1017.13 1016.28 1014.76 1014.12 1014.61 1014.99 1014.86 1015.04 1015.13 1015.57 1015.98 1016.03 1016.05 1016.35 1016.64 1016.72 1016.95 1017.10 1017.25 1017.36 1017.57 1017.78 1017.73 1017.81 1017.86 1017.55 1017.55 1017.58 1017.57 1017.47 1017.61 1017.63
1020.86 1020.62 1020.04 1019.19 1018.79 1018.36 1018.47 1018.26 1018.85 1019.46 1019.72 1018.70 1017.23 1015.24 1014.41 1014.28 1014.86 1015.14 1015.09 1015.11 1015.42 1015.70 1015.85 1015.88 1016.00 1016.32 1016.61 1016.85 1017.02 1017.23 1017.33 1017.51 1017.70 1017.95 1017.90 1017.94 1018.09 1017.90 1017.85 1017.90 1018.02 1018.04 1018.01 1018.00
1021.84 1021.29 1020.55 1019.83 1019.61 1019.20 1018.49 1018.70 1018.74 1019.20 1019.75 1019.19 1018.01 1015.23 1014.22 1014.43 1014.94 1015.10 1014.95 1015.10 1015.50 1015.96 1015.98 1015.90 1016.11 1016.41 1016.58 1016.70 1016.95 1017.11 1017.25 1017.36 1017.52 1017.85 1017.96 1017.90 1018.05 1018.13 1018.18 1018.19 1018.28 1018.41 1018.36 1018.44
1022.34 1021.77 1021.08 1020.81 1020.65 1020.06 1019.80 1019.71 1019.63 1019.85 1019.94 1018.72 1017.85 1015.19 1014.87 1014.84 1014.80 1014.98 1015.18 1015.41 1015.82 1015.99 1016.00 1016.07 1016.22 1016.31 1016.44 1016.66 1016.84 1016.84 1016.94 1017.12 1017.38 1017.71 1017.73 1017.89 1018.09 1018.24 1018.26 1018.34 1018.50 1018.54 1018.58 1018.72
1022.59 1022.60 1022.23 1021.72 1021.45 1021.32 1020.72 1020.33 1020.13 1019.83 1019.43 1018.46 1016.67 1015.55 1015.09 1014.40 1014.58 1014.66 1015.11 1015.49 1015.63 1015.84 1015.92 1015.93 1015.98 1016.00 1016.22 1016.43 1016.42 1016.54 1016.70 1016.84 1017.13 1017.43 1017.68 1017.93 1018.07 1018.23 1018.37 1018.57 1018.67 1018.74 1018.86 1019.04
1022.76 1022.92 1022.87 1022.27 1021.98 1021.84 1021.17 1020.71 1020.43 1019.94 1019.24 1018.56 1016.21 1015.65 1015.24 1015.10 1015.02 1014.79 1014.84 1015.21 1015.42 1015.45 1015.60 1015.73 1015.82 1015.79 1015.94 1016.11 1016.14 1016.33 1016.50 1016.80 1017.12 1017.43 1017.75 1017.91 1018.13 1018.38 1018.56 1018.78 1018.93 1019.09 1019.29 1019.48
1023.41 1023.56 1023.67 1023.13 1022.59 1022.10 1021.43 1020.57 1020.07 1019.43 1018.96 1017.96 1017.13 1015.13 1015.50 1015.14 1014.99 1014.99 1015.01 1015.09 1014.99 1014.60 1014.56 1015.38 1015.59 1015.71 1015.76 1015.79 1015.91 1016.31 1016.61 1016.88 1017.18 1017.45 1017.62 1017.85 1018.15 1018.43 1018.65 1018.92 1019.17 1019.33 1019.51 1019.68
1023.82 1024.17 1024.34 1023.76 1023.46 1022.79 1022.00 1020.52 1019.76 1018.85 1018.32 1017.61 1016.67 1014.67 1014.97 1014.92 1014.88 1014.80 1014.62 1014.44 1014.17 1014.17 1014.46 1014.75 1014.94 1015.13 1015.30 1015.42 1015.75 1016.18 1016.50 1016.81 1017.12 1017.39 1017.63 1017.84 1018.12 1018.32 1018.58 1018.97 1019.29 1019.46 1019.66 1019.94
1023.92 1024.35 1024.41 1024.46 1024.20 1023.05 1020.78 1020.23 1019.51 1018.85 1017.96 1017.37 1016.50 1015.08 1014.94 1015.00 1014.98 1014.66 1014.37 1014.39 1014.19 1014.08 1014.00 1014.03 1014.11 1014.21 1014.58 1015.14 1015.64 1016.06 1016.44 1016.75 1017.08 1017.42 1017.67 1018.01 1018.14 1018.25 1018.61 1018.99 1019.23 1019.47 1019.69 1019.90
1023.80 1024.04 1024.43 1024.49 1023.93 1022.48 1020.86 1019.18 1018.91 1018.45 1017.12 1016.26 1015.88 1015.25 1015.41 1015.57 1015.35 1014.34 1014.29 1014.26 1013.96 1013.76 1013.57 1013.63 1013.72 1013.89 1014.49 1015.04 1015.49 1015.99 1016.47 1016.75 1017.10 1017.46 1017.76 1018.02 1018.22 1018.43 1018.74 1019.01 1019.24 1019.55 1019.77 1020.06
1024.04 1023.99 1024.20 1024.49 1023.43 1021.84 1019.71 1018.92 1018.53 1018.51 1017.10 1016.39 1016.01 1015.75 1015.84 1015.88 1015.36 1014.28 1014.57 1014.42 1014.17 1014.00 1013.91 1013.80 1013.73 1014.00 1014.48 1014.99 1015.53 1016.05 1016.50 1016.94 1017.50 1017.76 1018.12 1018.51 1018.76 1018.87 1018.96 1019.17 1019.51 1019.85 1020.10 1020.35
1024.27 1023.96 1023.42 1023.13 1022.45 1021.22 1018.70 1018.71 1018.81 1018.36 1016.56 1016.38 1016.33 1016.22 1016.18 1016.03 1015.74 1015.01 1014.70 1014.58 1014.27 1014.17 1014.22 1013.88 1014.02 1014.13 1014.55 1015.28 1015.80 1016.29 1016.77 1017.29 1017.74 1018.12 1018.57 1018.90 1019.07 1019.16 1019.18 1019.40 1019.73 1019.95 1020.30 1020.70
1022.75 1022.90 1022.44 1022.27 1021.53 1020.19 1018.00 1018.67 1018.30 1016.63 1016.47 1016.55 1016.44 1016.32 1016.22 1015.99 1015.78 1015.37 1014.98 1014.85 1014.54 1014.30 1014.60 1014.65 1014.57 1014.74 1015.41 1015.91 1016.28 1016.77 1017.23 1017.80 1018.10 1018.51 1018.94 1019.31 1019.45 1019.55 1019.68 1019.87 1020.17 1020.46 1020.73 1021.04
1021.73 1020.29 1020.36 1020.35 1018.84 1017.63 1017.60 1016.98 1016.68 1016.64 1016.53 1016.46 1016.42 1016.10 1016.11 1015.91 1015.63 1015.49 1015.22 1015.32 1015.04 1015.15 1015.10 1015.75 1015.27 1015.47 1016.00 1016.35 1016.67 1017.22 1017.61 1018.15 1018.60 1018.99 1019.33 1019.68 1019.87 1019.94 1020.00 1020.11 1020.35 1020.75 1021.10 1021.43
1020.41 1019.93 1019.46 1019.17 1017.71 1016.94 1017.13 1016.77 1016.52 1016.46 1016.22 1016.06 1016.23 1016.07 1016.16 1015.88 1015.70 1015.64 1015.64 1015.51 1015.50 1015.98 1015.63 1016.16 1016.84 1015.98 1016.30 1016.83 1017.11 1017.51 1017.92 1018.46 1018.96 1019.33 1019.70 1020.08 1020.12 1020.25 1020.48 1020.60 1020.61 1020.74 1021.05 1021.35
1019.02 1019.02 1018.38 1017.84 1016.55 1016.86 1016.44 1015.97 1015.83 1015.85 1015.92 1016.04 1016.05 1016.13 1015.87 1015.77 1015.64 1015.66 1015.95 1015.57 1015.91 1016.28 1016.94 1016.88 1016.91 1016.88 1016.80 1017.19 1017.69 1018.20 1018.51 1018.90 1019.25 1019.64 1019.96 1020.16 1020.38 1020.46 1020.56 1020.82 1021.02 1020.97 1021.13 1021.25
1017.89 1017.18 1017.30 1016.08 1015.50 1015.78 1014.92 1015.00 1015.17 1015.61 1015.55 1015.64 1015.95 1015.81 1015.50 1015.59 1015.32 1015.56 1015.78 1015.79 1015.88 1016.60 1016.65 1017.27 1017.32 1017.16 1017.08 1017.39 1017.83 1018.38 1018.90 1019.23 1019.39 1019.66 1020.01 1020.08 1020.22 1020.48 1020.65 1020.82 1021.02 1021.30 1021.46 1021.68
Wind_Speed
4 6 8 10 5 3 2 3 6 0 2 4 10 12 11 4 5 8 9 10 10 10 7 7 8 8 9 11 12 12 12 12 9 8 8 8 9 9 9 9 12 12 11 11
2 10 6 4 4 2 2 1 1 0 2 2 2 14 12 8 8 10 10 10 11 7 7 7 7 8 7 7 9 10 10 9 9 8 7 6 5 7 8 7 10 11 12 11
5 3 12 12 7 7 3 2 1 2 1 2 2 9 10 5 8 10 12 12 10 10 9 7 7 7 5 5 5 4 4 5 7 8 7 5 4 3 4 6 6 7 9 10
1 2 11 12 12 7 3 2 3 3 3 4 2 6 4 3 9 8 12 12 13 11 9 8 7 8 6 4 2 3 3 3 2 3 6 9 8 8 6 5 5 5 7 8
3 5 7 5 4 9 5 3 1 1 2 1 4 6 3 1 5 7 4 4 6 6 7 8 7 6 3 4 3 3 4 3 2 0 2 4 7 6 6 5 7 6 5 6
2 1 2 1 2 3 11 5 3 2 1 5 2 5 7 4 3 1 1 3 4 3 1 3 3 5 5 4 3 2 4 4 3 2 1 3 5 5 5 4 5 4 3 2
2 2 1 2 8 3 6 7 3 4 5 6 3 4 10 11 6 4 3 5 2 0 3 5 6 6 5 4 4 3 4 4 4 4 4 3 3 4 5 5 3 3 3 2
6 5 5 3 3 6 9 12 5 6 4 2 3 7 2 3 4 4 5 6 3 4 3 4 5 5 6 5 4 4 5 4 4 3 3 3 3 2 2 3 3 2 0 1
4 3 1 1 1 2 6 8 7 3 2 2 4 5 10 10 3 3 3 2 6 4 5 5 4 5 6 5 5 4 4 4 3 3 2 3 3 3 3 3 1 1 3 3
1 3 0 0 1 4 5 12 6 4 5 6 5 5 8 6 6 8 5 5 6 4 5 5 5 5 4 4 4 4 4 4 3 2 2 2 2 3 3 3 4 4 4 4
2 4 1 3 3 6 5 5 4 5 2 3 3 4 4 3 2 5 8 6 5 6 7 7 6 5 5 5 5 4 4 4 3 2 2 2 2 3 3 3 3 3 4 4
7 2 3 2 3 6 1 0 6 4 4 3 2 7 4 5 3 5 8 6 4 5 5 5 6 6 6 5 5 5 5 5 4 4 3 3 3 2 2 2 3 3 4 4
0 1 3 4 0 2 4 8 7 3 1 10 5 4 2 4 5 4 5 5 5 6 6 6 6 7 7 6 5 5 4 4 4 4 3 3 3 2 3 3 3 3 4 4
2 2 3 3 3 2 1 1 1 12 7 8 18 17 13 16 16 14 6 3 4 5 6 7 6 6 6 6 6 5 4 4 4 4 4 4 3 3 3 3 3 3 3 4
2 1 2 4 3 3 5 7 5 7 12 8 11 17 15 15 12 13 10 3 5 7 9 9 8 8 8 7 6 5 4 4 4 4 4 4 3 3 3 3 3 3 3 3
2 1 1 3 3 7 7 11 12 14 13 16 17 26 13 16 16 12 11 7 10 12 12 9 9 7 7 7 7 5 4 4 4 4 4 3 4 4 4 4 4 4 4 5
2 4 2 3 5 5 5 9 13 8 9 10 14 23 11 13 11 13 11 11 13 11 7 9 11 10 7 6 5 7 6 5 5 5 4 4 5 5 5 5 5 5 5 4
4 2 1 2 1 4 2 6 4 8 12 12 17 21 15 14 14 14 13 13 12 11 11 11 11 11 9 5 7 5 5 5 5 4 3 3 3 3 4 5 5 5 4 5
11 7 2 3 4 6 12 7 6 9 13 12 16 18 12 7 6 16 12 14 15 15 13 11 9 9 8 8 8 7 6 5 4 4 3 2 1 1 3 4 5 4 4 4
8 11 8 4 5 5 9 2 3 3 9 6 9 9 3 2 7 10 4 6 9 11 10 10 6 5 7 7 8 8 6 5 4 3 3 2 1 1 3 4 4 2 2 2
5 6 13 11 9 5 15 10 2 8 10 1 1 3 2 5 6 14 12 14 7 4 8 5 5 6 5 6 6 6 6 5 4 4 4 3 1 1 2 3 2 4 4 5
9 10 7 7 5 10 5 5 9 9 1 3 8 7 9 8 9 11 12 11 10 7 4 4 4 4 5 5 5 5 5 4 4 4 3 3 2 1 2 3 3 3 5 6
6 10 6 11 8 5 8 6 10 3 8 5 6 7 8 8 8 9 6 7 7 5 1 3 5 6 4 4 4 5 5 5 4 4 3 3 2 2 2 3 4 4 4 4
6 4 6 4 13 16 10 10 10 9 13 9 7 10 8 12 9 7 7 5 2 3 2 3 3 5 6 4 3 1 5 5 5 4 4 3 3 3 2 1 3 4 5 5
4 9 6 6 17 6 13 13 13 11 10 9 8 7 8 8 6 4 6 1 0 1 4 2 4 2 2 3 3 3 4 5 4 4 4 4 3 3 3 2 0 1 1 3
7 10 8 11 12 9 16 7 5 9 8 9 7 5 6 8 8 6 5 3 1 3 2 4 5 4 4 4 4 5 4 4 5 6 5 5 5 5 4 4 4 5 3 3
Wind_Direction
159 174 217 232 241 1 293 227 217 146 37 219 233 256 244 207 249 237 232 223 227 221 214 218 216 217 220 226 222 220 218 220 211 210 213 230 230 230 234 232 235 233 231 229
143 214 151 34 284 315 45 236 191 21 11 225 288 264 258 242 248 237 239 243 241 226 217 201 202 198 207 211 217 217 216 215 211 213 215 224 224 235 239 239 238 236 235 233
193 67 168 175 224 231 226 270 224 356 92 68 305 270 246 228 249 254 248 246 257 250 236 218 200 197 177 174 160 171 182 209 219 221 220 229 244 251 243 235 243 236 235 235
207 46 165 173 198 196 253 269 245 148 204 252 319 262 236 240 255 246 252 251 252 248 244 249 224 210 196 160 123 135 133 133 116 214 226 234 242 249 251 265 252 247 231 235
124 164 163 177 202 195 194 12 105 124 147 263 196 261 214 22 258 240 235 270 287 283 251 236 236 229 157 148 149 148 142 113 77 203 237 233 242 257 270 266 272 263 252 244
57 4 191 329 44 145 137 93 50 44 66 252 194 266 239 205 235 82 346 335 332 336 83 126 109 142 136 129 132 126 138 99 72 72 51 262 260 263 264 259 260 259 254 233
149 144 224 177 113 159 109 156 204 222 210 253 55 245 290 287 278 288 291 319 348 4 140 141 144 146 141 141 133 113 123 91 73 76 68 41 346 291 274 278 278 271 230 202
199 179 191 170 204 175 154 194 191 205 213 345 73 242 222 236 259 267 280 291 218 193 171 168 150 148 142 140 130 123 115 106 80 76 73 56 39 16 346 308 292 306 237 128
189 228 294 288 350 183 162 206 199 45 94 278 246 254 260 293 24 3 313 256 222 211 197 182 160 168 158 151 139 135 134 122 105 90 74 54 43 46 26 12 26 98 105 103
235 216 97 308 188 78 199 143 125 180 197 228 226 258 249 265 360 341 317 235 225 210 213 200 184 177 167 149 146 148 144 137 121 112 85 67 47 50 51 45 60 68 83 91
181 278 126 197 187 168 147 175 103 127 233 267 281 229 209 245 47 330 324 299 253 222 213 200 198 184 175 168 173 170 166 159 159 166 139 120 61 48 56 69 67 76 96 107
1 284 183 182 24 323 277 75 190 199 187 255 293 255 296 321 10 347 330 304 266 253 228 210 195 191 189 189 184 187 175 179 171 164 164 138 134 128 114 98 93 95 103 98
44 352 183 154 227 10 211 211 226 237 62 224 247 242 66 15 36 40 353 325 282 248 215 204 204 205 196 195 194 195 192 186 174 178 175 162 173 168 143 124 113 108 106 105
7 68 49 32 6 12 179 64 260 227 236 255 243 268 272 303 320 325 334 282 260 258 228 220 218 217 213 210 205 201 200 194 182 186 193 203 194 183 166 146 138 131 122 123
312 117 274 225 248 241 247 253 252 249 240 235 265 270 268 281 283 285 295 248 232 227 239 228 224 223 220 215 209 207 207 191 187 187 197 205 184 178 166 168 153 131 131 122
3 121 7 280 278 250 259 254 250 247 249 254 260 268 276 281 279 274 266 254 247 237 220 225 234 242 241 223 216 199 202 184 176 182 182 168 174 175 177 171 172 164 157 153
121 142 161 252 2 345 296 254 232 250 234 258 264 268 295 297 274 260 257 246 243 242 234 206 224 230 229 230 200 204 189 158 168 166 158 167 177 179 178 177 181 178 175 163
165 172 215 309 337 235 248 299 261 246 261 248 260 266 276 277 286 282 261 268 264 251 242 235 227 220 210 215 197 168 168 169 161 149 135 153 168 165 168 184 191 178 172 173
219 211 217 245 223 310 304 260 197 206 262 237 247 273 305 314 275 277 268 264 269 276 271 259 225 226 199 192 185 171 165 156 153 159 134 78 58 177 180 196 189 175 172 169
209 227 220 174 241 248 247 4 228 181 270 326 237 278 317 318 319 308 19 344 304 292 280 266 224 192 192 181 163 162 163 152 167 137 91 43 5 225 205 195 176 145 157 136
145 195 218 230 237 248 259 238 111 256 266 93 230 334 296 291 284 296 306 303 283 295 307 270 215 199 184 150 153 149 148 169 122 105 96 85 50 187 186 150 143 154 135 129
170 171 201 209 235 253 234 121 208 233 199 224 287 287 293 279 285 286 308 304 298 289 300 273 183 145 125 132 143 139 154 127 118 118 115 110 112 102 125 126 118 116 137 134
230 209 191 203 206 228 188 224 223 255 258 247 256 264 259 273 282 297 301 308 323 309 100 296 168 135 139 146 152 153 157 141 121 120 129 123 92 73 92 138 139 141 146 151
235 187 230 183 246 248 236 249 246 243 248 260 256 290 277 276 271 271 286 286 355 302 190 157 242 159 163 186 173 117 134 131 142 142 146 141 137 128 107 134 162 165 171 177
182 163 209 252 259 292 263 242 251 242 254 270 271 247 258 263 266 250 266 19 345 242 301 257 211 228 210 161 174 162 156 150 156 152 162 167 167 169 143 113 149 207 198 208
185 213 226 245 255 231 263 258 213 223 231 230 234 249 239 217 210 203 261 299 117 317 182 269 255 226 215 187 188 187 185 182 167 172 182 183 170 166 159 141 117 78 84 171